User: anonymous   Login
Location: Aulnoy
(48.8410°N, 3.0967°E)
Time: 01:13:48
(UTC+00:00)
Language:

Cosmos 1606 - Orbit

View from above orbital plane
View from above orbital plane
View from above satellite
View from above satellite

Ground track
Ground track

The orbit data is extracted from the following two-line orbital elements,

1 15369U 84111A   24106.28708346  .00016564  00000-0  54833-3 0  9998
2 15369  82.5237 177.8291 0012293 206.5522 153.5091 15.31122193158957
Epoch (UTC): 15 April 2024 06:53:24
Eccentricity: 0.0012293
inclination: 82.5237°
perigee height: 464 km
apogee height: 481 km
right ascension of ascending node: 177.8291°
argument of perigee: 206.5522°
revolutions per day: 15.31122193
mean anomaly at epoch: 153.5091°
orbit number at epoch: 15895

The dashed part of the orbit path shows where the satellite is in the earth's shadow,  

DLR